Location: Unspecified
(22.6800°N, 112.2000°E)
Time: 11:54:41
(UTC+08:00)

S-56A Canister/Altair - Pass Details

Date: 01 August 2021
Orbit: 632 x 2500 km, 38.9° (Epoch: 21 September)

Event Time Altitude Azimuth Distance (km) Brightness Sun altitude
Rises 23:41:24 0° 292° (WNW) 5,750 12.4 -47.2°
Reaches altitude 10° 23:46:24 10° 281° (W) 4,463 11.6 -47.6°
Enters shadow 23:50:37 19° 264° (W) 3,498 10.8 -47.9°
Maximum altitude 23:55:04 25° 233° (SW) 2,855 - -48.2°
Drops below altitude 10° 00:01:38 10° 182° (S) 3,284 - -48.5°
Sets 00:04:42 0° 168° (SSE) 3,979 - -48.7°
